COSMOS 1691 DEB, 16267

Orbit data source: Space-Track

COSMOS 1691 DEB, 16267 is space debris in LEO originally from a launch on Wed, 09 Oct 1985 UTC launched from the Plesetsk Missile And Space Complex (PKMTR). Debris objects in space refer to the collection of defunct objects orbiting the Earth. Examples of debris include non-operational satellites, rocket bodies, and fragments generated from explosions, collisions, or faulty payload assembly.

Loading next visibility...
Identifier
16267, 1985-094L
Orbit
LEO
Country
Flag of CISCIS
Related business
Manufacturer
Unknown
Mission
Spacecraft
Bus & Motor
Unknown
Mass
Unknown
Launch date (UTC)
1985-10-09 (41 years ago)
Launch vehicle
Unknown
Launch site
Plesetsk Missile And Space Complex (PKMTR)
Object type
Payload
Rocket body
Debris
Shape & HBR
Unknown shape, 0.1 m
Radar Cross Section
Small (<0.1 m²)

Expand to show TLE details & history
Last TLE update: 8 hours ago

TLE from 8 hours ago
0 COSMOS 1691 DEB
1 16267U 85094L   26127.16804428  .00003108  00000-0  75462-2 0  9997
2 16267  82.6321 182.1600 0080405 190.3451 226.8612 13.20207360538988
Epoch: 2026-05-07T04:01Z
TLE epoch observation values (Epoch: 2026-05-07T04:01:59.025Z)
Latitude
55.92289°
Longitude
-92.39021°
Altitude
1,235.048 km
Speed
7.222 km/s
True Right ascension
12h 52m 29s
True Declination
55° 46' 23"
Sunlit
Object was in daylight at epoch
Visualization orbit readout
Latitude
Unknown
Longitude
Unknown
Altitude
Unknown
Speed
Unknown
Apparent Right ascension
Unknown
Apparent Declination
Unknown
Sunlit
N/A
Visualization observer readout
Local Sidereal Time
19:53:56
Azimuth
Unknown
Elevation
Unknown
Doppler factor
Unknown
Orbital elements
Apogee altitude
1,241.945 km
Perigee altitude
1,120.384 km
Semi-major axis
7,559.302 km
Eccentricity
0.00804
Inclination
82.6321°
RAAN
182.16°
Arg. of periapsis
190.3451°
True anomaly
226.19348°
Mean anomaly
226.8612°
Eccentric anomaly
226.52688°
Mean motion
3.30233 °/min
Orbital period
109.01 mins
BSTAR
0.0075462
Loading maneuver chart data...
Computing Atmospheric mass density...
Loading historical data...
Loading historical data...
Loading historical data...
Loading historical data...
Loading historical data...
Loading historical data...
Loading historical data...

Documentation

Showing up to 5 results
|